Showing default

BUGSAT 1, 40014

Orbit data source: Space-Track

BUGSAT 1, 40014 is a payload satellite owned by Satellogic SA (AR) in SSO that was launched on Thu, 19 Jun 2014 UTC via a DNEPR launch vehicle from the Orenburg, Russia (OREN). Payload-class satellites include a variety of spacecraft equipped with specific instruments for various scientific and technological missions. These include communications satellites like Starlink; space stations such as the ISS; scientific satellites like the Hubble; Earth observation satellites from companies like Planet Labs, Umbra, and HawkEye 360; GPS; miniature CubeSats for education and research; and military/defense satellites.

Loading next visibility...
Identifier
40014, 2014-033E
Orbit
SSO
Country
Flag of UnknownUnknown / ARGN
Related business
Manufacturer
Satellogic SA
Mission
Operational Commercial Imaging
Bus & Motor
BUGSAT, Unknown motor
Mass
22 kg wet, 22 kg dry
Launch date (UTC)
2014-06-19 (11 years ago)
Launch vehicle
DNEPR
Launch site
Orenburg, Russia (OREN)
Object type
Payload
Rocket body
Debris
Shape & HBR
Box, 1.0 m
Radar Cross Section
0.263 m², Medium (>0.1 m² and < 1m²)

Expand to show TLE details & history
Last TLE update: 7 hours ago

TLE from 7 hours ago
0 BUGSAT 1
1 40014U 14033E   25351.94514773  .00003415  00000-0  19359-3 0  9999
2 40014  98.0566  69.1367 0030625  79.5431 280.9247 15.13350659628402
Epoch: 2025-12-17T22:41Z
TLE epoch observation values (Epoch: 2025-12-17T22:41:00.763Z)
Latitude
-0.00008°
Longitude
2.0758°
Altitude
525.107 km
Speed
7.603 km/s
True Right ascension
04h 36m 32s
True Declination
0° 00' 00"
Sunlit
Object was in full shadow at epoch
Visualization orbit readout
Latitude
Unknown
Longitude
Unknown
Altitude
Unknown
Speed
Unknown
Apparent Right ascension
Unknown
Apparent Declination
Unknown
Sunlit
N/A
Visualization observer readout
Local Sidereal Time
04:15:30
Azimuth
Unknown
Elevation
Unknown
Doppler factor
Unknown
Orbital elements
Apogee altitude
544.129 km
Perigee altitude
501.859 km
Semi-major axis
6,901.131 km
Eccentricity
0.00306
Inclination
98.0566°
RAAN
69.1367°
Arg. of periapsis
79.5431°
True anomaly
280.57988°
Mean anomaly
280.9247°
Eccentric anomaly
280.75231°
Mean motion
3.78584 °/min
Orbital period
95.09 mins
BSTAR
0.00019359
Loading maneuver chart data...
Computing Atmospheric mass density...
Loading historical data...
Loading historical data...
Loading historical data...
Loading historical data...
Loading historical data...
Loading historical data...
Loading historical data...

Documentation

Showing up to 5 results
|